COSMOS 1275 DEB, 42183

Orbit data source: Space-Track

COSMOS 1275 DEB, 42183 is space debris in LEO originally from a launch on Thu, 04 Jun 1981 UTC launched from the Plesetsk Missile And Space Complex (PKMTR). Debris objects in space refer to the collection of defunct objects orbiting the Earth. Examples of debris include non-operational satellites, rocket bodies, and fragments generated from explosions, collisions, or faulty payload assembly.

Loading next visibility...
Identifier
42183, 1981-053SX
Orbit
LEO
Country
Flag of CISCIS
Related business
Manufacturer
Unknown
Mission
Spacecraft
Bus & Motor
Unknown
Mass
Unknown
Launch date (UTC)
1981-06-04 (45 years ago)
Launch vehicle
Unknown
Launch site
Plesetsk Missile And Space Complex (PKMTR)
Object type
Payload
Rocket body
Debris
Shape & HBR
Unknown shape, 0.1 m
Radar Cross Section
Small (<0.1 m²)

Expand to show TLE details & history
Last TLE update: 1 week ago

TLE from 1 week ago
0 COSMOS 1275 DEB
1 42183U 81053SX  25343.30120404  .00001852  00000-0  15521-2 0  9998
2 42183  82.9423 353.2433 0047491 259.8472 120.5786 13.87165307588295
Epoch: 2025-12-09T07:13Z
TLE epoch observation values (Epoch: 2025-12-09T07:13:44.029Z)
Latitude
20.73376°
Longitude
169.19422°
Altitude
958.956 km
Speed
7.365 km/s
True Right ascension
23h 43m 39s
True Declination
20° 37' 24"
Sunlit
Object was in daylight at epoch
Visualization orbit readout
Latitude
Unknown
Longitude
Unknown
Altitude
Unknown
Speed
Unknown
Apparent Right ascension
Unknown
Apparent Declination
Unknown
Sunlit
N/A
Visualization observer readout
Local Sidereal Time
13:14:01
Azimuth
Unknown
Elevation
Unknown
Doppler factor
Unknown
Orbital elements
Apogee altitude
970.448 km
Perigee altitude
900.979 km
Semi-major axis
7,313.851 km
Eccentricity
0.00475
Inclination
82.9423°
RAAN
353.2433°
Arg. of periapsis
259.8472°
True anomaly
121.04571°
Mean anomaly
120.5786°
Eccentric anomaly
120.8123°
Mean motion
3.46996 °/min
Orbital period
103.75 mins
BSTAR
0.0015521
Loading maneuver chart data...
Computing Atmospheric mass density...
Loading historical data...
Loading historical data...
Loading historical data...
Loading historical data...
Loading historical data...
Loading historical data...
Loading historical data...

Documentation

Showing up to 5 results
|